Satellite: NO-44
Catalog number: 26931
Epoch time:      10077.32503170
Element set:     412
Inclination:      067.0498 deg
RA of node:       078.0731 deg
Eccentricity:    0.0006487
Arg of perigee:   263.8495 deg
Mean anomaly:     096.1834 deg
Mean motion:   14.29586365 rev/day
Decay rate:      -1.93e-06 rev/day^2
Epoch rev:           44176
Checksum:              320

Satellite: SO-50
Catalog number: 27607
Epoch time:      10077.55373150
Element set:     128
Inclination:      064.5570 deg
RA of node:       271.8013 deg
Eccentricity:    0.0036566
Arg of perigee:   119.3909 deg
Mean anomaly:     241.0832 deg
Mean motion:   14.71512015 rev/day
Decay rate:        8.3e-07 rev/day^2
Epoch rev:           38904
Checksum:              282

Satellite: CO-55
Catalog number: 27844
Epoch time:      10077.03250260
Element set:     803
Inclination:      098.7130 deg
RA of node:       087.3105 deg
Eccentricity:    0.0010884
Arg of perigee:   074.1610 deg
Mean anomaly:     286.0773 deg
Mean motion:   14.20691690 rev/day
Decay rate:        9.6e-07 rev/day^2
Epoch rev:           34814
Checksum:              288

Satellite: CO-57
Catalog number: 27848
Epoch time:      10077.68277515
Element set:     755
Inclination:      098.7168 deg
RA of node:       087.0301 deg
Eccentricity:    0.0010775
Arg of perigee:   076.5317 deg
Mean anomaly:     283.7053 deg
Mean motion:   14.20486481 rev/day
Decay rate:        8.0e-07 rev/day^2
Epoch rev:           34819
Checksum:              331

Satellite: AO-51
Catalog number: 28375
Epoch time:      10077.02750028
Element set:     629
Inclination:      098.0588 deg
RA of node:       075.7304 deg
Eccentricity:    0.0085026
Arg of perigee:   014.4166 deg
Mean anomaly:     345.9423 deg
Mean motion:   14.40674042 rev/day
Decay rate:        3.6e-07 rev/day^2
Epoch rev:           30038
Checksum:              290

Satellite: GENESAT1
Catalog number: 29655
Epoch time:      10076.92198845
Element set:     979
Inclination:      040.0170 deg
RA of node:       257.5008 deg
Eccentricity:    0.0006577
Arg of perigee:   003.7677 deg
Mean anomaly:     356.3187 deg
Mean motion:   15.77598863 rev/day
Decay rate:     6.6323e-04 rev/day^2
Epoch rev:           18550
Checksum:              345

Satellite: CP3
Catalog number: 31129
Epoch time:      10077.33717327
Element set:     531
Inclination:      097.9526 deg
RA of node:       121.7271 deg
Eccentricity:    0.0103570
Arg of perigee:   155.0820 deg
Mean anomaly:     205.5423 deg
Mean motion:   14.52224246 rev/day
Decay rate:       2.32e-06 rev/day^2
Epoch rev:           15467
Checksum:              264

Satellite: CO-65
Catalog number: 32785
Epoch time:      10076.92615667
Element set:     630
Inclination:      097.9052 deg
RA of node:       143.0779 deg
Eccentricity:    0.0014095
Arg of perigee:   218.5838 deg
Mean anomaly:     141.4359 deg
Mean motion:   14.81603390 rev/day
Decay rate:       -8.0e-08 rev/day^2
Epoch rev:           10197
Checksum:              319

Satellite: KKS-1
Catalog number: 33493
Epoch time:      10077.71760893
Element set:     307
Inclination:      098.0735 deg
RA of node:       196.5009 deg
Eccentricity:    0.0021293
Arg of perigee:   074.9887 deg
Mean anomaly:     285.3688 deg
Mean motion:   14.80898514 rev/day
Decay rate:       7.59e-06 rev/day^2
Epoch rev:            6209
Checksum:              347

Satellite: SOHLA-1
Catalog number: 33496
Epoch time:      10077.66693381
Element set:      53
Inclination:      098.0484 deg
RA of node:       187.9602 deg
Eccentricity:    0.0007492
Arg of perigee:   125.3377 deg
Mean anomaly:     234.8535 deg
Mean motion:   14.69476202 rev/day
Decay rate:       -4.1e-07 rev/day^2
Epoch rev:            6158
Checksum:              315

/EX
SB KEPS @ AMSAT  $ORB10077.W
Orbital Elements  10077.WEATHER

HR AMSAT ORBITAL ELEMENTS FOR WEATHER SATELLITES
FROM WA5QGD FORT WORTH,TX March 18, 2010
Send Subscribe/unsubscribe to KEPS at http://www.amsat.org/mailman/listinfo/kep
BID: ORB10077.W
TO ALL RADIO AMATEURS BT

Satellite: NOAA-10
Catalog number: 16969
Epoch time:      10077.23778060
Element set:     994
Inclination:      098.6663 deg
RA of node:       107.0222 deg
Eccentricity:    0.0013162
Arg of perigee:   115.4197 deg
Mean anomaly:     244.8350 deg
Mean motion:   14.27410004 rev/day
Decay rate:        7.7e-07 rev/day^2
Epoch rev:           22260
Checksum:              281

Satellite: NOAA-11
Catalog number: 19531
Epoch time:      10077.30111634
Element set:      10
Inclination:      098.7684 deg
RA of node:       167.8741 deg
Eccentricity:    0.0012278
Arg of perigee:   049.1697 deg
Mean anomaly:     311.0561 deg
Mean motion:   14.14918491 rev/day
Decay rate:       1.80e-06 rev/day^2
Epoch rev:           10828
Checksum:              285

Satellite: NOAA-12
Catalog number: 21263
Epoch time:      10077.32235288
Element set:     495
Inclination:      098.7694 deg
RA of node:       090.4805 deg
Eccentricity:    0.0013337
Arg of perigee:   071.7885 deg
Mean anomaly:     288.4745 deg
Mean motion:   14.25622273 rev/day
Decay rate:        6.1e-07 rev/day^2
Epoch rev:           97945
Checksum:              329

